Regional Weather Roundup
Issued by NWS

Home | Current Version | Previous Version | Text Only | Print | Product List | Glossary Off
Versions: 1 2 3 4 5 6 7 8 9 10 11 12 13 14 15 16 17 18 19 20 21 22 23 24 25 26 27

000
ASUS45 KBOU 191907
RWRCO

WEATHER ROUNDUP FOR COLORADO
NATIONAL WEATHER SERVICE DENVER/BOULDER CO
100 PM MDT SAT AUG 19 2017

NOTE: "FAIR" INDICATES FEW OR NO CLOUDS BELOW 12000 FEET WITH NO
SIGNIFICANT WEATHER AND/OR OBSTRUCTIONS TO VISIBILITY.

COZ001>005-013-030-031-192000-
...NORTHWEST COLORADO...

CITY           SKY/WX    TMP DP  RH WIND       PRES   REMARKS
CRAIG          FAIR      85  22  10 SW10G18   30.20F
HAYDEN         FAIR      81  28  14 W15G22    30.24F
MEEKER         FAIR      84  24  11 W10G20    30.22F
RABBIT EARS PA FAIR      63  32  31 W8G20     30.53S
STEAMBOAT SPGS FAIR      79  32  17 SW12G17   30.24F
WALDEN         FAIR      75  25  15 SW15G22   30.33F
$$

COZ006>008-011-192000-
...WEST CENTRAL VALLEYS...

CITY           SKY/WX    TMP DP  RH WIND       PRES   REMARKS
GRAND JUNCTION FAIR      88  37  16 SW9       30.12F
MONTROSE       FAIR      84  37  18 E3        30.19F
EAGLE          FAIR      85  31  14 SW22G32   30.21F
RIFLE          FAIR      85  34  16 NW6       30.15F
DELTA          FAIR      88  34  14 SW8       30.15F
NUCLA          FAIR      86  30  13 N7        30.23F
$$

COZ017>023-064>068-192000-
...SOUTHWEST COLORADO...

CITY           SKY/WX    TMP DP  RH WIND       PRES   REMARKS
DURANGO        FAIR      84  26  12 W6        30.25F
CORTEZ         FAIR      88  28  11 CALM      30.19F
PAGOSA SPRINGS FAIR      80  26  13 N5        30.33F
TELLURIDE      FAIR      71  24  17 SW7       30.47S
WOLF CREEK PAS PTSUNNY   57  30  35 S10G21    30.70F
$$

COZ009-010-012-014-032>034-037-058>063-192000-
...CENTRAL COLORADO...

CITY           SKY/WX    TMP DP  RH WIND       PRES   REMARKS
ASPEN          FAIR      77  32  19 NW10G17   30.31F
BUENA VISTA    FAIR      79  21  11 W15       30.31F
COPPER MTN     PTSUNNY   61  27  27 W24       30.64F
BERTHOUD PASS  FAIR      52  46  82 W29G41    30.66F
COTTONWOOD PAS FAIR      77  12   8 NW5       30.47F
GUNNISON       FAIR      75  36  24 VRB5      30.33F
KREMMLING      FAIR      86  27  11 W17       30.27F
LEADVILLE      PTSUNNY   69  24  18 NW14G22   30.43F
MONARCH PASS   FAIR      59  23  25 W28G38    30.74F
SALIDA         FAIR      83  22  10 W12G24    30.35F
SUNLIGHT       FAIR      63  32  31 SW8G21    30.59F
WILKERSON PASS FAIR      64  28  25 SW10G18   30.60F
$$

COZ069>075-192000-
...SAN LUIS VALLEY/SANGRE DE CRISTO MOUNTAINS...

CITY           SKY/WX    TMP DP  RH WIND       PRES   REMARKS
ALAMOSA        FAIR      78  37  22 VRB3      30.31F
DEL NORTE      FAIR      77  40  26 W5        30.33F
LA VETA PASS   NOT AVBL
SAGUACHE       FAIR      77  43  29 E8        30.33F
$$

COZ035-036-038>040-192000-
...NORTHERN COLORADO FRONT RANGE...

CITY           SKY/WX    TMP DP  RH WIND       PRES   REMARKS
DENVER INTL AP FAIR      90  33  13 S8        30.07F
DMNS CITY PARK   N/A     90  33  13 NE5G14    30.05F
AURORA         MOSUNNY   89  36  15 SW8G18    30.10F
FRONT RANGE AP FAIR      91  34  13 SW8G16    30.09F
ERIE MUNI ARPT FAIR      91  32  12 W9        30.08F
BOULDER MUN AP FAIR      91  34  13 W13G18    30.04F
CENTENNIAL     FAIR      88  28  11 NW9       30.11F
BROOMFIELD     MOSUNNY   90  32  12 SW14G23   30.09F
FORT COLLINS   FAIR      90  46  21 SE8       30.04F HAZE
LONGMONT       FAIR      94  37  13 W12G20    30.04F
$$

COZ041-046-047-076>085-087-088-192000-
...PIKES PEAK/PALMER DIVIDE AND SOUTHERN FOOTHILLS...

CITY           SKY/WX    TMP DP  RH WIND       PRES   REMARKS
COLO. SPRINGS  PTSUNNY   90  39  16 NW3       30.17F
A. F. ACADEMY  FAIR      85  27  12 SW10G20   30.18F
SCHRIEVER AFB  FAIR      85  33  15 SW7       30.17F
CHEYENNE MTN   PTSUNNY   79  36  20 CALM      30.18F
ELLICOTT       NOT AVBL
FALCON         FAIR      84  28  13 W8        30.23F
FORT CARSON    FAIR      87  42  21 E9        30.13F
LIMON          FAIR      87  42  20 VRB6      30.09F
MONUMENT HILL  FAIR      81  34  18 SW8       30.25F
CANON CITY     SUNNY     91  39  16 W15       30.09F
WALSENBURG     FAIR      91  32  12 SW10G26   30.15F
TRINIDAD       LGT RAIN  81  33  17 SW26G58   30.20R
$$

COZ042>045-048>051-090-091-192000-
...NORTHEAST COLORADO...

CITY           SKY/WX    TMP DP  RH WIND       PRES   REMARKS
GREELEY ARPT   FAIR      90  44  20 S3        30.03F
AKRON          FAIR      90  47  22 NW8       30.02F
BURLINGTON     FAIR      88  62  41 SW14      30.02F
WRAY           NOT AVBL
YUMA           FAIR      88  37  16 S6        29.98F
STERLING       FAIR      91  55  29 SW8       29.95F
HOLYOKE        FAIR      91  68  46 S8        29.96S
FORT MORGAN    FAIR      92  37  14 W7        30.02F
$$

COZ086-089-092>099-192000-
...SOUTHEAST COLORADO...

CITY           SKY/WX    TMP DP  RH WIND       PRES   REMARKS
PUEBLO         FAIR      93  48  21 NE3       30.04F
LA JUNTA       FAIR      90  52  27 SW7       30.03F
LAMAR          FAIR      93  56  28 SW3       29.98F
SPRINGFIELD      N/A     90  60  36 S20G26    30.07F
$$




USA.gov is the U.S. government's official web portal to all federal, state and local government web resources and services.